When you browse on this site, cookies collect data to enhance your experience and personalize the content and advertising you see.
Visit our Privacy Policy to learn more. By continuing to use the site, you agree to this use of cookies and data.
  • In Österreich
  • Länderverzeichnis
  • Für 7 Tage
  • Wassertemperatur
  • Satellitenkarten
  • Wetterkarte
  • News
  • Widgets
  • user-avatar
    Anmelden

    Stündliche Wetter Sterling Heights

    Heute, 22 April, Montag

    Zeit Temperatur Niederschläge Wind Luftdruck Luftfeuchtigkeit
    00:00 +10°C° 0 mm 2 m/S 749 mmHg 61%
    01:00 +10°C° 0 mm 2 m/S 749 mmHg 62%
    02:00 +9°C° 0 mm 2 m/S 749 mmHg 63%
    03:00 +9°C° 0 mm 2 m/S 749 mmHg 64%
    04:00 +9°C° 0 mm 2 m/S 749 mmHg 66%
    05:00 +9°C° 0 mm 2 m/S 749 mmHg 67%
    06:00 +10°C° 0 mm 2 m/S 750 mmHg 70%
    07:00 +13°C° 0 mm 2 m/S 749 mmHg 64%
    08:00 +14°C° 0 mm 3 m/S 749 mmHg 57%
    09:00 +17°C° 0 mm 3 m/S 749 mmHg 51%
    10:00 +18°C° 0 mm 4 m/S 749 mmHg 47%
    11:00 +19°C° 0 mm 4 m/S 749 mmHg 43%
    12:00 +20°C° 0 mm 5 m/S 748 mmHg 38%
    13:00 +20°C° 0 mm 5 m/S 748 mmHg 39%
    14:00 +20°C° 0 mm 5 m/S 747 mmHg 40%
    15:00 +20°C° 0 mm 5 m/S 747 mmHg 40%
    16:00 +19°C° 0 mm 5 m/S 746 mmHg 46%
    17:00 +18°C° 0 mm 4 m/S 746 mmHg 51%
    18:00 +17°C° 0 mm 4 m/S 746 mmHg 56%
    19:00 +17°C° 0 mm 4 m/S 745 mmHg 59%
    20:00 +15°C° 0 mm 4 m/S 745 mmHg 61%
    21:00 +15°C° 0 mm 4 m/S 745 mmHg 63%
    22:00 +15°C° 0 mm 4 m/S 745 mmHg 66%
    23:00 +14°C° 0 mm 4 m/S 744 mmHg 68%

    Morgen, 23 April, Dienstag

    Zeit Temperatur Niederschläge Wind Luftdruck Luftfeuchtigkeit
    00:00 +14°C° 0 mm 5 m/S 744 mmHg 70%
    01:00 +14°C° 0 mm 5 m/S 743 mmHg 71%
    02:00 +14°C° 0 mm 5 m/S 742 mmHg 72%
    03:00 +15°C° 0 mm 5 m/S 741 mmHg 73%
    04:00 +15°C° 1.3 mm 5 m/S 740 mmHg 77%
    05:00 +15°C° 1.3 mm 6 m/S 740 mmHg 81%
    06:00 +15°C° 1.3 mm 6 m/S 739 mmHg 85%
    07:00 +15°C° 0.1 mm 6 m/S 739 mmHg 84%
    08:00 +16°C° 0.1 mm 6 m/S 739 mmHg 82%
    09:00 +16°C° 0.1 mm 7 m/S 740 mmHg 80%
    10:00 +16°C° 0 mm 7 m/S 740 mmHg 77%
    11:00 +16°C° 0 mm 7 m/S 740 mmHg 73%
    12:00 +16°C° 0 mm 7 m/S 740 mmHg 70%
    13:00 +15°C° 0 mm 7 m/S 741 mmHg 67%
    14:00 +15°C° 0 mm 7 m/S 741 mmHg 64%
    15:00 +15°C° 0 mm 6 m/S 741 mmHg 61%
    16:00 +14°C° 0 mm 6 m/S 742 mmHg 60%
    17:00 +14°C° 0 mm 5 m/S 742 mmHg 59%
    18:00 +13°C° 0 mm 5 m/S 742 mmHg 58%
    19:00 +12°C° 0 mm 5 m/S 743 mmHg 58%
    20:00 +10°C° 0 mm 5 m/S 744 mmHg 57%
    21:00 +9°C° 0 mm 5 m/S 744 mmHg 57%
    22:00 +8°C° 0 mm 5 m/S 744 mmHg 59%
    23:00 +8°C° 0 mm 4 m/S 744 mmHg 62%

    übermorgen, 24 April, Mittwoch

    Zeit Temperatur Niederschläge Wind Luftdruck Luftfeuchtigkeit
    00:00 +7°C° 0 mm 4 m/S 745 mmHg 65%
    01:00 +7°C° 0 mm 3 m/S 745 mmHg 65%
    02:00 +7°C° 0 mm 3 m/S 745 mmHg 66%
    03:00 +5°C° 0 mm 3 m/S 745 mmHg 66%
    04:00 +5°C° 0 mm 3 m/S 745 mmHg 64%
    05:00 +5°C° 0 mm 3 m/S 745 mmHg 61%
    06:00 +5°C° 0 mm 3 m/S 745 mmHg 59%
    07:00 +8°C° 0 mm 2 m/S 745 mmHg 51%
    08:00 +10°C° 0 mm 2 m/S 746 mmHg 44%
    09:00 +13°C° 0 mm 2 m/S 746 mmHg 37%
    10:00 +14°C° 0 mm 2 m/S 746 mmHg 33%
    11:00 +16°C° 0 mm 2 m/S 745 mmHg 30%
    12:00 +17°C° 0 mm 2 m/S 745 mmHg 26%
    13:00 +17°C° 0 mm 2 m/S 745 mmHg 26%
    14:00 +18°C° 0 mm 2 m/S 744 mmHg 26%
    15:00 +18°C° 0 mm 2 m/S 744 mmHg 27%
    16:00 +17°C° 0 mm 2 m/S 744 mmHg 31%
    17:00 +16°C° 0 mm 1 m/S 744 mmHg 36%
    18:00 +16°C° 0 mm 1 m/S 743 mmHg 40%
    19:00 +15°C° 0 mm 1 m/S 744 mmHg 43%
    20:00 +14°C° 0 mm 1 m/S 744 mmHg 45%
    21:00 +13°C° 0 mm 2 m/S 744 mmHg 48%
    22:00 +12°C° 0 mm 2 m/S 743 mmHg 49%
    23:00 +12°C° 0 mm 2 m/S 743 mmHg 51%

    25 April, Donnerstag

    Zeit Temperatur Niederschläge Wind Luftdruck Luftfeuchtigkeit
    00:00 +12°C° 0 mm 2 m/S 743 mmHg 53%
    01:00 +10°C° 0 mm 2 m/S 743 mmHg 55%
    02:00 +10°C° 0 mm 2 m/S 742 mmHg 57%
    03:00 +10°C° 0 mm 3 m/S 742 mmHg 59%
    04:00 +10°C° 0 mm 3 m/S 742 mmHg 59%
    05:00 +10°C° 0 mm 3 m/S 742 mmHg 59%
    06:00 +10°C° 0 mm 3 m/S 742 mmHg 59%
    07:00 +12°C° 0 mm 3 m/S 742 mmHg 54%
    08:00 +14°C° 0 mm 3 m/S 742 mmHg 48%
    09:00 +17°C° 0 mm 3 m/S 742 mmHg 43%
    10:00 +18°C° 0 mm 3 m/S 741 mmHg 40%
    11:00 +20°C° 0 mm 3 m/S 741 mmHg 37%
    12:00 +21°C° 0 mm 3 m/S 741 mmHg 34%
    13:00 +21°C° 0 mm 3 m/S 740 mmHg 35%
    14:00 +21°C° 0 mm 3 m/S 739 mmHg 36%
    15:00 +21°C° 0 mm 3 m/S 738 mmHg 36%
    16:00 +20°C° 0 mm 3 m/S 738 mmHg 41%
    17:00 +19°C° 0 mm 2 m/S 738 mmHg 46%
    18:00 +18°C° 0 mm 2 m/S 738 mmHg 51%
    19:00 +17°C° 0 mm 2 m/S 738 mmHg 54%
    20:00 +16°C° 0 mm 2 m/S 738 mmHg 57%
    21:00 +15°C° 0 mm 2 m/S 738 mmHg 59%
    22:00 +13°C° 0.4 mm 3 m/S 738 mmHg 68%
    23:00 +12°C° 0.4 mm 5 m/S 738 mmHg 76%

    26 April, Freitag

    Zeit Temperatur Niederschläge Wind Luftdruck Luftfeuchtigkeit
    00:00 +10°C° 0.4 mm 6 m/S 738 mmHg 84%
    01:00 +9°C° 1.1 mm 6 m/S 738 mmHg 83%
    02:00 +9°C° 1.1 mm 6 m/S 738 mmHg 82%
    03:00 +9°C° 1.1 mm 5 m/S 738 mmHg 82%
    04:00 +9°C° 0 mm 6 m/S 739 mmHg 80%
    05:00 +9°C° 0 mm 6 m/S 740 mmHg 78%
    06:00 +9°C° 0 mm 6 m/S 741 mmHg 76%
    07:00 +10°C° 0 mm 6 m/S 741 mmHg 65%
    08:00 +13°C° 0 mm 6 m/S 741 mmHg 53%
    09:00 +14°C° 0 mm 6 m/S 742 mmHg 42%
    10:00 +14°C° 0 mm 6 m/S 742 mmHg 38%
    11:00 +15°C° 0 mm 6 m/S 742 mmHg 33%
    12:00 +15°C° 0 mm 7 m/S 743 mmHg 29%
    13:00 +15°C° 0 mm 7 m/S 743 mmHg 29%
    14:00 +15°C° 0 mm 7 m/S 743 mmHg 29%
    15:00 +15°C° 0 mm 7 m/S 744 mmHg 29%
    16:00 +14°C° 0 mm 7 m/S 744 mmHg 31%
    17:00 +13°C° 0 mm 6 m/S 745 mmHg 33%
    18:00 +12°C° 0 mm 5 m/S 745 mmHg 34%
    19:00 +10°C° 0 mm 5 m/S 745 mmHg 35%
    20:00 +10°C° 0 mm 4 m/S 746 mmHg 35%
    21:00 +9°C° 0 mm 3 m/S 747 mmHg 36%
    22:00 +8°C° 0 mm 3 m/S 747 mmHg 38%
    23:00 +8°C° 0 mm 3 m/S 747 mmHg 39%

    27 April, Samstag

    Zeit Temperatur Niederschläge Wind Luftdruck Luftfeuchtigkeit
    00:00 +7°C° 0 mm 2 m/S 747 mmHg 41%
    01:00 +7°C° 0 mm 2 m/S 747 mmHg 42%
    02:00 +6°C° 0 mm 2 m/S 747 mmHg 43%
    03:00 +6°C° 0 mm 2 m/S 747 mmHg 44%
    04:00 +7°C° 0 mm 1 m/S 747 mmHg 44%
    05:00 +7°C° 0 mm 0 m/S 747 mmHg 43%
    06:00 +7°C° 0 mm 0 m/S 748 mmHg 42%
    07:00 +10°C° 0 mm 1 m/S 747 mmHg 39%
    08:00 +10°C° 0 mm 2 m/S 747 mmHg 35%
    09:00 +12°C° 0 mm 3 m/S 746 mmHg 31%
    10:00 +12°C° 0.1 mm 4 m/S 746 mmHg 34%
    11:00 +12°C° 0.1 mm 5 m/S 745 mmHg 37%
    12:00 +11°C° 0.1 mm 6 m/S 744 mmHg 40%
    13:00 +10°C° 0.7 mm 6 m/S 743 mmHg 48%
    14:00 +9°C° 0.7 mm 5 m/S 743 mmHg 56%
    15:00 +8°C° 0.7 mm 5 m/S 742 mmHg 63%
    16:00 +9°C° 0.1 mm 6 m/S 741 mmHg 64%
    17:00 +9°C° 0.1 mm 6 m/S 741 mmHg 65%
    18:00 +9°C° 0.1 mm 7 m/S 740 mmHg 65%
    19:00 +9°C° 0 mm 7 m/S 739 mmHg 66%
    20:00 +10°C° 0 mm 7 m/S 738 mmHg 66%
    21:00 +10°C° 0 mm 7 m/S 738 mmHg 67%
    22:00 +11°C° 0 mm 7 m/S 737 mmHg 70%
    23:00 +12°C° 0 mm 7 m/S 737 mmHg 74%
    Mehr zeigen